Waarnemingen

Advertentie
Mijn weer
Santander/Parayas, Spanje (8021): temperatuur & dauwpunt: 14.08.2018 01:00:00 - 20.08.2018 01:00:00 (CEST)Santander/Parayas, Spanje (8021): windsnelheid: 14.08.2018 01:00:00 - 20.08.2018 01:00:00 (CEST)Santander/Parayas, Spanje (8021): windrichting: 14.08.2018 01:00:00 - 20.08.2018 01:00:00 (CEST)Santander/Parayas, Spanje (8021): luchtdruk: 14.08.2018 01:00:00 - 20.08.2018 01:00:00 (CEST)Santander/Parayas, Spanje (8021): zicht: 14.08.2018 01:00:00 - 20.08.2018 01:00:00 (CEST)
Datum & Tijd tt [°C] td [°C] ff [km/u] ff [kn] dd ppp [hPa] vv [km]
20.08.2018 01:00:00 17,7 17,2 2 1 Z 1024,2 -
20.08.2018 00:00:00 19,3 18,5 2 1 ZO 1024,2 -
19.08.2018 23:00:00 20,9 19,2 8 4 ONO 1024,2 15
19.08.2018 22:00:00 21,7 19,3 9 5 O 1023,9 -
19.08.2018 21:00:00 22,6 19,4 13 7 ONO 1023,7 -
19.08.2018 20:00:00 23,5 19,8 15 8 NO 1023,7 20
19.08.2018 19:00:00 23,9 20,0 18 10 NO 1023,6 -
19.08.2018 18:00:00 24,3 19,8 21 11 NO 1023,7 -
19.08.2018 17:00:00 24,4 19,7 22 12 NO 1023,4 20
19.08.2018 16:00:00 24,5 19,2 22 12 NO 1023,5 -
19.08.2018 15:00:00 24,5 19,3 24 13 NO 1023,4 -
19.08.2018 14:00:00 24,1 18,8 21 11 NO 1023,5 25
19.08.2018 13:00:00 24,0 18,6 22 12 NO 1024,2 -
19.08.2018 12:00:00 23,8 18,2 16 9 NO 1024,3 -
19.08.2018 11:00:00 22,2 17,0 9 5 O 1024,4 25
19.08.2018 10:00:00 21,0 16,0 0 0 N 1024,3 -
19.08.2018 09:00:00 18,1 15,7 0 0 N 1024,1 -
19.08.2018 08:00:00 15,1 14,5 0 0 N 1024,0 25
19.08.2018 07:00:00 14,7 13,9 0 0 N 1023,5 -
19.08.2018 06:00:00 15,0 14,5 2 1 ZZW 1023,7 -
19.08.2018 05:00:00 15,0 14,2 4 2 Z 1023,8 -
19.08.2018 04:00:00 15,5 14,7 4 2 Z 1024,1 -
19.08.2018 03:00:00 15,8 15,2 4 2 WZW 1024,1 -
19.08.2018 02:00:00 16,0 15,0 0 0 N 1024,1 -
19.08.2018 01:00:00 17,1 15,6 4 2 ONO 1024,2 -
19.08.2018 00:00:00 18,0 15,8 11 6 OZO 1024,2 -
18.08.2018 23:00:00 18,3 15,9 11 6 OZO 1024,1 25
18.08.2018 22:00:00 19,3 16,1 8 4 OZO 1023,9 -
18.08.2018 21:00:00 21,5 16,2 15 8 O 1023,3 -
18.08.2018 20:00:00 22,5 16,6 16 9 NO 1023,0 35
18.08.2018 19:00:00 22,9 16,2 22 12 NO 1023,1 -
18.08.2018 18:00:00 23,5 16,5 21 11 NO 1023,2 -
18.08.2018 17:00:00 23,7 16,6 18 10 NO 1023,5 -
18.08.2018 16:00:00 23,9 16,7 21 11 NO 1023,8 -
18.08.2018 15:00:00 23,6 15,5 16 9 NO 1024,1 -
18.08.2018 14:00:00 23,3 15,8 18 10 ONO 1024,3 35
18.08.2018 13:00:00 23,1 15,0 13 7 NO 1024,7 -
18.08.2018 12:00:00 22,8 15,3 8 4 NO 1024,7 -
18.08.2018 11:00:00 22,5 15,3 4 2 O 1024,7 35
18.08.2018 10:00:00 19,7 15,8 8 4 ZZW 1024,8 -
18.08.2018 09:00:00 17,3 15,3 9 5 ZZW 1024,7 -
18.08.2018 08:00:00 15,1 14,8 4 2 W 1024,6 -
18.08.2018 07:00:00 14,5 14,0 0 0 N 1024,4 -
18.08.2018 06:00:00 15,1 14,6 0 0 N 1024,4 -
18.08.2018 05:00:00 15,5 15,0 4 2 ZO 1024,8 -
18.08.2018 04:00:00 16,1 15,6 2 1 O 1024,8 -
18.08.2018 03:00:00 15,3 14,8 4 2 Z 1025,2 -
18.08.2018 02:00:00 15,4 14,5 0 0 N 1025,6 -
18.08.2018 01:00:00 15,9 14,6 4 2 ZW 1025,6 -
18.08.2018 00:00:00 16,7 14,9 5 3 ZZW 1025,6 -
17.08.2018 23:00:00 18,3 14,8 8 4 ZZW 1025,5 30
17.08.2018 22:00:00 20,1 13,7 11 6 NNO 1025,2 -
17.08.2018 21:00:00 20,2 14,0 11 6 NO 1024,9 -
17.08.2018 20:00:00 20,6 14,0 13 7 NNO 1024,7 30
17.08.2018 19:00:00 20,9 14,2 11 6 N 1024,6 -
17.08.2018 18:00:00 20,5 16,2 11 6 WNW 1024,5 -
17.08.2018 17:00:00 20,4 16,6 13 7 WNW 1024,7 35
17.08.2018 16:00:00 21,6 16,2 11 6 NW 1024,8 -
17.08.2018 15:00:00 22,3 15,7 8 4 ONO 1024,9 -
17.08.2018 14:00:00 21,7 16,5 4 2 ZZO 1025,0 30
17.08.2018 13:00:00 20,3 16,8 8 4 NNW 1025,3 -
17.08.2018 12:00:00 19,2 16,8 4 2 O 1025,2 -
17.08.2018 11:00:00 19,1 18,3 4 2 ZO 1024,6 15
17.08.2018 10:00:00 18,6 17,3 4 2 OZO 1024,0 -
17.08.2018 09:00:00 18,6 17,5 8 4 ONO 1023,0 -
17.08.2018 08:00:00 19,1 17,2 16 9 NNO 1022,3 12
17.08.2018 07:00:00 18,6 18,6 22 12 ONO 1021,6 -
17.08.2018 06:00:00 18,8 18,8 18 10 N 1021,2 -
17.08.2018 05:00:00 18,6 18,6 13 7 ZZW 1020,7 -
17.08.2018 04:00:00 18,9 18,9 11 6 W 1020,9 -
17.08.2018 03:00:00 19,5 19,0 13 7 WZW 1020,8 -
17.08.2018 02:00:00 20,0 18,8 9 5 ZW 1020,6 -
17.08.2018 01:00:00 19,7 19,2 8 4 ZZW 1021,0 -
17.08.2018 00:00:00 19,9 18,7 11 6 ZZW 1021,0 -
16.08.2018 23:00:00 21,0 18,6 8 4 W 1020,6 20
16.08.2018 22:00:00 21,3 18,3 5 3 W 1020,2 -
16.08.2018 21:00:00 21,5 18,0 9 5 WNW 1019,6 -
16.08.2018 20:00:00 22,0 18,0 11 6 NNW 1019,3 25
16.08.2018 19:00:00 22,4 18,6 15 8 NNW 1019,2 -
16.08.2018 18:00:00 23,0 20,1 13 7 N 1018,7 -
16.08.2018 17:00:00 22,6 20,7 13 7 N 1018,8 18
16.08.2018 16:00:00 21,8 21,5 15 8 NNW 1018,9 -
16.08.2018 15:00:00 22,8 20,9 18 10 NNW 1018,5 -
16.08.2018 14:00:00 24,2 20,9 24 13 WNW 1018,0 20
16.08.2018 13:00:00 25,8 21,4 18 10 WNW 1018,1 -
16.08.2018 12:00:00 23,8 20,7 15 8 WNW 1018,1 -
16.08.2018 11:00:00 23,5 20,4 9 5 W 1018,0 18
16.08.2018 10:00:00 22,3 20,3 11 6 W 1017,6 -
16.08.2018 09:00:00 21,1 20,4 8 4 ZW 1017,5 -
16.08.2018 08:00:00 20,7 20,5 4 2 W 1017,2 15
16.08.2018 07:00:00 20,1 20,1 5 3 ZZW 1016,9 -
16.08.2018 06:00:00 19,6 19,6 4 2 ZZW 1016,6 -
16.08.2018 05:00:00 19,0 19,0 0 0 N 1016,8 -
16.08.2018 04:00:00 18,4 18,4 5 3 ZZW 1017,3 -
16.08.2018 03:00:00 18,4 18,4 4 2 ZW 1017,5 -
16.08.2018 02:00:00 18,0 17,8 2 1 ZZW 1017,5 -
16.08.2018 01:00:00 18,8 17,8 0 0 N 1017,6 -
16.08.2018 00:00:00 20,3 19,0 8 4 OZO 1017,7 -
15.08.2018 23:00:00 21,3 19,2 8 4 O 1017,5 30
15.08.2018 22:00:00 21,7 18,9 11 6 O 1017,3 -
15.08.2018 21:00:00 22,9 18,9 13 7 O 1017,1 -
15.08.2018 20:00:00 24,0 19,1 18 10 ONO 1017,0 35
15.08.2018 19:00:00 24,4 19,2 24 13 ONO 1017,1 -
15.08.2018 18:00:00 25,0 19,0 24 13 ONO 1017,6 -
15.08.2018 17:00:00 24,8 19,6 26 14 NO 1018,0 35
15.08.2018 16:00:00 24,6 19,0 28 15 NO 1018,4 -
15.08.2018 15:00:00 24,7 19,2 26 14 NO 1018,9 -
15.08.2018 14:00:00 24,6 18,6 26 14 NO 1019,3 35
15.08.2018 13:00:00 25,1 18,6 24 13 NO 1019,6 -
15.08.2018 12:00:00 24,6 16,4 21 11 O 1020,1 -
15.08.2018 11:00:00 24,1 16,4 15 8 O 1020,3 35
15.08.2018 10:00:00 23,0 17,7 8 4 OZO 1020,7 -
15.08.2018 09:00:00 19,9 19,9 0 0 N 1021,2 -
15.08.2018 08:00:00 18,0 18,0 0 0 N 1021,2 20
15.08.2018 07:00:00 17,0 17,0 0 0 N 1021,2 -
15.08.2018 06:00:00 16,1 15,9 4 2 W 1021,4 -
15.08.2018 05:00:00 17,1 16,5 0 0 N 1022,0 -
15.08.2018 04:00:00 18,5 17,5 0 0 N 1022,4 -
15.08.2018 03:00:00 19,1 17,9 0 0 N 1022,8 -
15.08.2018 02:00:00 19,0 17,8 4 2 Z 1023,3 -
15.08.2018 01:00:00 19,1 17,6 4 2 Z 1023,3 -
15.08.2018 00:00:00 18,8 17,1 4 2 ZO 1023,3 -
14.08.2018 23:00:00 18,8 16,6 0 0 N 1023,4 30
14.08.2018 22:00:00 20,4 16,8 8 4 O 1023,1 -
14.08.2018 21:00:00 21,9 16,4 13 7 ONO 1022,6 -
14.08.2018 20:00:00 22,8 16,5 15 8 ONO 1022,5 40
14.08.2018 19:00:00 22,2 16,8 13 7 ONO 1022,7 -
14.08.2018 18:00:00 22,8 17,1 15 8 ONO 1023,0 -
14.08.2018 17:00:00 23,1 17,1 11 6 N 1023,1 40
14.08.2018 16:00:00 23,7 17,3 11 6 NNW 1023,0 -
14.08.2018 15:00:00 23,2 17,0 11 6 N 1023,2 -
14.08.2018 14:00:00 23,1 17,8 13 7 W 1023,2 35
14.08.2018 13:00:00 22,6 17,6 13 7 NW 1023,2 -
14.08.2018 12:00:00 21,2 19,0 8 4 ZZO 1023,3 -
14.08.2018 11:00:00 21,3 18,8 11 6 ZW 1022,8 20
14.08.2018 10:00:00 20,6 18,5 13 7 ZW 1022,3 -
14.08.2018 09:00:00 20,0 19,2 9 5 ZZW 1022,1 -
14.08.2018 08:00:00 19,0 19,0 11 6 ZZW 1021,8 15
14.08.2018 07:00:00 18,8 18,8 9 5 ZZW 1021,2 -
14.08.2018 06:00:00 18,9 18,9 9 5 ZZW 1020,8 -
14.08.2018 05:00:00 19,1 19,1 9 5 ZW 1020,8 -
14.08.2018 04:00:00 19,3 19,0 9 5 ZZW 1020,5 -
14.08.2018 03:00:00 19,4 18,6 11 6 ZW 1020,3 -
14.08.2018 02:00:00 20,1 17,5 9 5 W 1020,7 -
14.08.2018 01:00:00 20,4 18,0 11 6 W 1020,3 -

tt = temperatuur
td = dauwpunt
ff = windsnelheid
dd = windrichting
ppp = luchtdruk
vv = zicht

Weerstations in de omgeving